Weather History for KCRP - August, 2011

Change the Weather History Date:

Tuesday, August 16, 2011

  Actual Average Record
Temperature  
Mean Temperature 88 °F 85 °F  
Max Temperature 98 °F 95 °F 100 °F (1948)
Min Temperature 77 °F 75 °F 70 °F (1967)
Degree Days  
Heating Degree Days 0 0  
Month to date heating degree days 0 0  
Since 1 June heating degree days 0 0  
Since 1 July heating degree days 0 0  
Cooling Degree Days 23 20  
Month to date cooling degree days 371 320  
Year to date cooling degree days 2670 2270  
Since 1 June cooling degree days 1593 1429  
Growing Degree Days 37 (Base 50)    
Moisture  
Dew Point 74 °F    
Average Humidity 65    
Maximum Humidity 88    
Minimum Humidity 42    
Precipitation  
Precipitation 0.00 in 0.10 in 0.98 in (1987)
Month to date precipitation 0.00 1.09  
Year to date precipitation 7.52 17.51  
Snow  
Snow 0.00 in - - ()
Month to date snowfall 0.0  
Since 1 June snowfall 0.0  
Since 1 July snowfall 0.0  
Snow Depth 0.00 in    
Sea Level Pressure  
Sea Level Pressure 29.93 in    
Wind  
Wind Speed 14 mph (SSE)    
Max Wind Speed 25 mph    
Max Gust Speed 31 mph    
Visibility 10 miles    
Events      
T = Trace of Precipitation, MM = Missing Value Source: NWS Daily Summary

Daily Weather History Graph

Daily Weather History Graph

Search for Another Location

Airport or City:

Trip Planner

Search our weather history database for the weather conditions in past years. The results will help you decide how hot, cold, wet, or windy it might be!

Date:

Astronomy

Aug. 16, 2011 Rise Set
Actual Time 7:00 AM CDT 8:07 PM CDT
Civil Twilight 6:36 AM CDT 8:31 PM CDT
Nautical Twilight 6:07 AM CDT 9:00 PM CDT
Astronomical Twilight 5:37 AM CDT 9:30 PM CDT
Moon 9:36 PM CDT (8/16) 9:31 AM CDT (8/16)
Length of Visible Light 13h 55m
Length of Day
13h 06m
Waning Gibbous, 92% of the Moon is Illuminated
Aug 16
Waning Gibbous
Aug 21
Last Quarter
Aug 28
New
Sep 4
First Quarter
Sep 12
Full

Hourly Weather History & Observations

Time (CDT) Temp. Heat Index Dew Point Humidity Pressure Visibility Wind Dir Wind Speed Gust Speed Precip Events Conditions
12:51 AM 82.0 °F 89.4 °F 75.9 °F 82% 29.92 in 10.0 mi SSE 8.1 mph - N/A   Partly Cloudy
1:51 AM 82.0 °F 89.4 °F 75.9 °F 82% 29.91 in 10.0 mi South 9.2 mph - N/A   Partly Cloudy
2:51 AM 81.0 °F 87.3 °F 75.9 °F 85% 29.92 in 10.0 mi SSE 9.2 mph - N/A   Partly Cloudy
3:51 AM 80.1 °F 85.1 °F 75.0 °F 85% 29.91 in 10.0 mi SSE 5.8 mph - N/A   Partly Cloudy
4:51 AM 79.0 °F - 73.9 °F 84% 29.90 in 10.0 mi South 4.6 mph - N/A   Partly Cloudy
5:51 AM 78.1 °F - 73.9 °F 87% 29.90 in 10.0 mi SSE 5.8 mph - N/A   Partly Cloudy
6:51 AM 77.0 °F - 73.4 °F 89% 29.91 in 10.0 mi SSE 5.8 mph - N/A   Partly Cloudy
7:51 AM 80.1 °F 85.4 °F 75.9 °F 87% 29.92 in 10.0 mi SSE 6.9 mph - N/A   Partly Cloudy
8:51 AM 84.0 °F 93.7 °F 77.0 °F 79% 29.94 in 10.0 mi South 10.4 mph - N/A   Partly Cloudy
9:51 AM 89.1 °F 97.0 °F 73.0 °F 59% 29.95 in 10.0 mi South 13.8 mph - N/A   Partly Cloudy
10:51 AM 91.9 °F 99.5 °F 72.0 °F 52% 29.95 in 10.0 mi SSE 11.5 mph 18.4 mph N/A   Scattered Clouds
11:51 AM 93.9 °F 100.8 °F 71.1 °F 47% 29.95 in 10.0 mi SSE 15.0 mph 19.6 mph N/A   Overcast
12:51 PM 97.0 °F 104.8 °F 71.1 °F 43% 29.94 in 10.0 mi SSE 12.7 mph 24.2 mph N/A   Scattered Clouds
1:51 PM 97.0 °F 104.8 °F 71.1 °F 43% 29.93 in 10.0 mi SE 20.7 mph 29.9 mph N/A   Partly Cloudy
2:51 PM 97.0 °F 103.5 °F 70.0 °F 41% 29.93 in 10.0 mi SSE 16.1 mph 27.6 mph N/A   Scattered Clouds
3:51 PM 97.0 °F 103.5 °F 70.0 °F 41% 29.91 in 10.0 mi SE 19.6 mph 29.9 mph N/A   Scattered Clouds
4:20 PM 96.8 °F 107.3 °F 73.4 °F 47% 29.91 in 10.0 mi SE 18.4 mph 28.8 mph N/A   Partly Cloudy
4:51 PM 95.0 °F 103.2 °F 71.6 °F 47% 29.90 in 10.0 mi SE 21.9 mph - N/A   Partly Cloudy
5:51 PM 93.0 °F 100.7 °F 72.0 °F 50% 29.90 in 10.0 mi SE 19.6 mph - N/A   Partly Cloudy
6:51 PM 90.0 °F 97.9 °F 73.0 °F 57% 29.90 in 10.0 mi SE 20.7 mph 28.8 mph N/A   Partly Cloudy
7:51 PM 87.1 °F 96.3 °F 75.0 °F 67% 29.91 in 10.0 mi SE 21.9 mph - N/A   Partly Cloudy
8:51 PM 84.9 °F 94.1 °F 75.9 °F 74% 29.93 in 10.0 mi SSE 18.4 mph - N/A   Partly Cloudy
9:51 PM 84.0 °F 92.6 °F 75.9 °F 76% 29.95 in 10.0 mi SE 15.0 mph - N/A   Partly Cloudy
10:51 PM 84.0 °F 93.7 °F 77.0 °F 79% 29.97 in 10.0 mi SE 13.8 mph - N/A   Partly Cloudy
11:51 PM 82.9 °F 91.8 °F 77.0 °F 82% 29.99 in 10.0 mi SSE 12.7 mph - N/A   Partly Cloudy